| time (UTC) | temp C | wind direction | speed KPH | gust KPH | rain 1hr cm | rain 24hr cm | rain mn cm | humidity % | barometer mb |
| 20260506155544 | 15 | 0.0 | 0.0 | 0.00 | 4.47 | 0.64 | 74 | 1013.4 | |
| 20260506154541 | 16 | 137 | 0.0 | 4.8 | 0.00 | 4.47 | 0.64 | 74 | 1013.4 |
| 20260506153519 | 16 | 0.0 | 0.0 | 0.10 | 4.47 | 0.64 | 74 | 1013.4 | |
| 20260506152524 | 16 | 160 | 3.2 | 6.4 | 0.10 | 4.47 | 0.64 | 74 | 1013.4 |
| 20260506151529 | 15 | 120 | 0.0 | 4.8 | 0.10 | 4.47 | 0.64 | 75 | 1013.4 |
| 20260506150527 | 15 | 113 | 0.0 | 1.6 | 0.10 | 4.47 | 0.64 | 76 | 1013.4 |
| 20260506145526 | 15 | 113 | 0.0 | 1.6 | 0.20 | 4.47 | 0.64 | 77 | 1013.4 |
| 20260506144523 | 15 | 0.0 | 0.0 | 0.20 | 4.47 | 0.64 | 76 | 1013.4 | |
| 20260506143524 | 15 | 0.0 | 0.0 | 0.10 | 4.37 | 0.53 | 76 | 1013.4 | |
| 20260506142519 | 15 | 135 | 0.0 | 6.4 | 0.10 | 4.37 | 0.53 | 75 | 1013.4 |
| 20260506141531 | 15 | 0.0 | 0.0 | 0.10 | 4.37 | 0.53 | 74 | 1013.4 | |
| 20260506140529 | 15 | 158 | 0.0 | 3.2 | 0.10 | 4.37 | 0.53 | 74 | 1013.4 |
| 20260506135529 | 15 | 0.0 | 0.0 | 0.00 | 4.27 | 0.43 | 72 | 1013.4 | |
| 20260506134527 | 15 | 0.0 | 0.0 | 0.10 | 4.27 | 0.43 | 71 | 1013.4 | |
| 20260506133525 | 15 | 0.0 | 0.0 | 0.10 | 4.27 | 0.43 | 71 | 1013.4 | |
| 20260506132542 | 15 | 0.0 | 0.0 | 0.20 | 4.27 | 0.43 | 73 | 1013.4 | |
| 20260506131520 | 15 | 0.0 | 1.6 | 0.20 | 4.27 | 0.43 | 72 | 1013.4 | |
| 20260506130532 | 15 | 244 | 0.0 | 4.8 | 0.20 | 4.27 | 0.43 | 71 | 1013.4 |
| 20260506125524 | 15 | 241 | 1.6 | 6.4 | 0.20 | 4.27 | 0.43 | 69 | 1013.4 |
| 20260506124548 | 15 | 255 | 4.8 | 14.5 | 0.10 | 4.17 | 0.30 | 67 | 1013.4 |
| 20260506123526 | 16 | 273 | 6.4 | 14.5 | 0.10 | 4.17 | 0.30 | 62 | 1013.4 |
| 20260506122547 | 16 | 296 | 9.7 | 14.5 | 0.00 | 4.06 | 0.20 | 58 | 1013.4 |
| 20260506121521 | 17 | 290 | 8.0 | 12.9 | 0.00 | 4.06 | 0.20 | 55 | 1013.4 |
| 20260506120520 | 18 | 284 | 4.8 | 9.7 | 0.00 | 4.06 | 0.20 | 54 | 1013.4 |
| 20260506115532 | 18 | 259 | 6.4 | 14.5 | 0.00 | 4.06 | 0.20 | 55 | 1013.4 |
| 20260506114530 | 18 | 290 | 1.6 | 8.0 | 0.00 | 4.06 | 0.20 | 55 | 1013.4 |
| 20260506113548 | 18 | 304 | 6.4 | 12.9 | 0.00 | 4.06 | 0.20 | 54 | 1013.4 |
| 20260506112522 | 18 | 206 | 4.8 | 9.7 | 0.00 | 4.06 | 0.20 | 57 | 1013.4 |
| 20260506111524 | 18 | 254 | 9.7 | 17.7 | 0.00 | 4.06 | 0.20 | 56 | 1013.4 |
| 20260506110538 | 18 | 226 | 6.4 | 12.9 | 0.00 | 4.06 | 0.20 | 57 | 1013.4 |
| 20260506105520 | 17 | 192 | 9.7 | 14.5 | 0.00 | 4.06 | 0.20 | 59 | 1013.4 |
| 20260506104532 | 17 | 202 | 9.7 | 17.7 | 0.00 | 4.06 | 0.20 | 60 | 1013.4 |
| 20260506103530 | 17 | 213 | 6.4 | 14.5 | 0.00 | 4.06 | 0.20 | 62 | 1013.4 |
| 20260506102548 | 17 | 201 | 9.7 | 16.1 | 0.00 | 4.06 | 0.20 | 62 | 1013.4 |
| 20260506101602 | 17 | 202 | 6.4 | 11.3 | 0.00 | 4.06 | 0.20 | 64 | 1013.4 |
| 20260506100519 | 17 | 198 | 8.0 | 14.5 | 0.00 | 4.06 | 0.20 | 64 | 1013.4 |
| 20260506095522 | 17 | 222 | 9.7 | 16.1 | 0.00 | 4.06 | 0.20 | 67 | 1013.4 |
| 20260506094520 | 17 | 263 | 6.4 | 11.3 | 0.00 | 4.06 | 0.20 | 69 | 1013.4 |
| 20260506093554 | 16 | 227 | 8.0 | 14.5 | 0.00 | 4.06 | 0.20 | 72 | 1013.4 |
| 20260506092526 | 16 | 190 | 4.8 | 12.9 | 0.00 | 4.06 | 0.20 | 74 | 1013.4 |
| 20260506091529 | 15 | 194 | 4.8 | 14.5 | 0.00 | 4.06 | 0.20 | 75 | 1013.4 |
| 20260506090547 | 15 | 233 | 6.4 | 11.3 | 0.00 | 4.06 | 0.20 | 75 | 1013.4 |
| 20260506085524 | 15 | 203 | 6.4 | 11.3 | 0.00 | 4.06 | 0.20 | 78 | 1013.4 |
| 20260506084522 | 15 | 222 | 4.8 | 9.7 | 0.00 | 4.06 | 0.20 | 79 | 1013.4 |
| 20260506083534 | 15 | 249 | 9.7 | 12.9 | 0.00 | 4.06 | 0.20 | 80 | 1013.4 |
| 20260506082520 | 14 | 202 | 4.8 | 9.7 | 0.00 | 4.06 | 0.20 | 83 | 1013.4 |
| 20260506081530 | 13 | 227 | 3.2 | 8.0 | 0.00 | 4.06 | 0.20 | 85 | 1013.4 |
| 20260506080528 | 13 | 225 | 4.8 | 12.9 | 0.00 | 4.06 | 0.20 | 86 | 1013.4 |
| 20260506073525 | 12 | 250 | 3.2 | 9.7 | 0.00 | 4.06 | 0.20 | 88 | 1013.4 |
| 20260506072541 | 12 | 228 | 3.2 | 6.4 | 0.00 | 4.06 | 0.20 | 88 | 1013.4 |
| 20260506071534 | 11 | 225 | 6.4 | 12.9 | 0.00 | 4.06 | 0.20 | 88 | 1013.4 |
| 20260506070531 | 11 | 251 | 3.2 | 9.7 | 0.00 | 4.06 | 0.20 | 88 | 1013.4 |
| 20260506061520 | 11 | 216 | 1.6 | 4.8 | 0.00 | 4.06 | 0.20 | 89 | 1013.4 |
| 20260506060523 | 11 | 244 | 1.6 | 6.4 | 0.00 | 4.06 | 0.20 | 89 | 1012.4 |
| 20260506050521 | 11 | 221 | 3.2 | 8.0 | 0.00 | 4.06 | 0.20 | 89 | 1012.4 |
| 20260506044551 | 11 | 224 | 3.2 | 8.0 | 0.00 | 4.06 | 0.20 | 89 | 1012.4 |
| 20260506043524 | 11 | 224 | 1.6 | 6.4 | 0.00 | 4.06 | 0.20 | 89 | 1012.4 |
| 20260506042526 | 11 | 223 | 3.2 | 9.7 | 0.00 | 4.06 | 0.20 | 89 | 1012.4 |
| 20260506041524 | 11 | 208 | 1.6 | 8.0 | 0.00 | 4.06 | 0.20 | 89 | 1012.4 |
| 20260506040529 | 11 | 188 | 3.2 | 9.7 | 0.00 | 4.06 | 0.20 | 89 | 1012.4 |
| 20260506035522 | 11 | 199 | 3.2 | 8.0 | 0.00 | 4.06 | 0.20 | 89 | 1012.4 |
| 20260506034529 | 11 | 220 | 3.2 | 8.0 | 0.00 | 4.06 | 0.20 | 89 | 1012.4 |
| 20260506033540 | 11 | 188 | 0.0 | 6.4 | 0.00 | 4.06 | 0.20 | 89 | 1012.4 |
| 20260506032525 | 11 | 206 | 0.0 | 4.8 | 0.00 | 4.06 | 0.20 | 89 | 1012.4 |
| 20260506031527 | 11 | 238 | 4.8 | 8.0 | 0.00 | 4.06 | 0.20 | 89 | 1012.4 |
| 20260506030600 | 11 | 214 | 0.0 | 3.2 | 0.00 | 4.06 | 0.20 | 89 | 1012.4 |
| 20260506025525 | 11 | 237 | 1.6 | 4.8 | 0.00 | 4.06 | 0.20 | 88 | 1012.4 |
| 20260506024521 | 11 | 221 | 3.2 | 6.4 | 0.00 | 4.06 | 0.20 | 88 | 1012.4 |
| 20260506023535 | 11 | 227 | 3.2 | 9.7 | 0.00 | 4.06 | 0.20 | 88 | 1012.4 |
| 20260506022535 | 11 | 221 | 0.0 | 6.4 | 0.00 | 4.06 | 0.20 | 88 | 1012.4 |
| 20260506021531 | 11 | 204 | 1.6 | 9.7 | 0.00 | 4.06 | 0.20 | 88 | 1012.4 |
| 20260506020530 | 11 | 221 | 1.6 | 9.7 | 0.00 | 4.06 | 0.20 | 88 | 1012.4 |
| 20260506015525 | 11 | 229 | 1.6 | 11.3 | 0.00 | 4.06 | 0.20 | 88 | 1012.4 |
| 20260506014523 | 12 | 229 | 4.8 | 9.7 | 0.00 | 4.06 | 0.20 | 88 | 1012.4 |
| 20260506013544 | 12 | 215 | 3.2 | 9.7 | 0.00 | 4.06 | 0.20 | 88 | 1012.4 |
| 20260506012534 | 12 | 219 | 1.6 | 6.4 | 0.00 | 4.06 | 0.20 | 88 | 1012.4 |
| 20260506011543 | 12 | 0.0 | 0.0 | 0.00 | 4.06 | 0.20 | 88 | 1012.4 | |
| 20260506010532 | 12 | 0.0 | 0.0 | 0.00 | 4.06 | 0.20 | 88 | 1012.4 | |
| 20260506005534 | 12 | 0.0 | 0.0 | 0.00 | 4.06 | 0.20 | 88 | 1012.4 | |
| 20260506004546 | 11 | 180 | 0.0 | 3.2 | 0.00 | 4.06 | 0.20 | 88 | 1012.4 |
| 20260506003524 | 11 | 0.0 | 1.6 | 0.00 | 4.06 | 0.20 | 88 | 1013.4 | |
| 20260506002521 | 11 | 0.0 | 0.0 | 0.00 | 4.06 | 0.20 | 88 | 1013.4 | |
| 20260506001525 | 11 | 0.0 | 0.0 | 0.10 | 4.06 | 0.20 | 88 | 1013.4 | |
| 20260506000535 | 11 | 0.0 | 0.0 | 0.10 | 4.06 | 0.20 | 87 | 1013.4 | |
| 20260505235532 | 12 | 0.0 | 0.0 | 0.10 | 4.06 | 0.20 | 87 | 1013.4 | |
| 20260505234548 | 12 | 0.0 | 0.0 | 0.20 | 4.06 | 0.20 | 87 | 1013.4 | |
| 20260505233606 | 12 | 180 | 0.0 | 4.8 | 0.20 | 4.06 | 0.20 | 87 | 1013.4 |
| 20260505232523 | 12 | 0.0 | 0.0 | 0.20 | 4.06 | 0.20 | 87 | 1013.4 | |
| 20260505231522 | 12 | 0.0 | 0.0 | 0.10 | 3.94 | 0.10 | 87 | 1013.4 | |
| 20260505230519 | 12 | 225 | 0.0 | 4.8 | 0.10 | 3.94 | 0.10 | 87 | 1013.4 |
| 20260505225531 | 12 | 204 | 0.0 | 4.8 | 0.10 | 3.94 | 0.10 | 87 | 1013.4 |
| 20260505224533 | 12 | 203 | 0.0 | 1.6 | 0.00 | 3.86 | 0.00 | 87 | 1013.4 |
| 20260505223547 | 12 | 0.0 | 0.0 | 0.00 | 3.86 | 0.00 | 87 | 1013.4 | |
| 20260505222530 | 12 | 0.0 | 0.0 | 0.00 | 3.86 | 0.00 | 87 | 1013.4 | |
| 20260505221525 | 12 | 0.0 | 0.0 | 0.00 | 3.86 | 0.00 | 87 | 1013.4 | |
| 20260505220522 | 12 | 0.0 | 0.0 | 0.00 | 3.86 | 0.00 | 87 | 1014.4 | |
| 20260505215519 | 12 | 0.0 | 0.0 | 0.00 | 3.86 | 3.86 | 86 | 1014.4 | |
| 20260505214541 | 12 | 0.0 | 0.0 | 0.00 | 3.86 | 3.86 | 86 | 1014.4 | |
| 20260505213529 | 12 | 0.0 | 0.0 | 0.00 | 3.86 | 3.86 | 86 | 1014.4 | |
| 20260505212611 | 12 | 0.0 | 0.0 | 0.00 | 3.86 | 3.86 | 86 | 1014.4 | |
| 20260505211520 | 12 | 165 | 3.2 | 6.4 | 0.00 | 3.86 | 3.86 | 86 | 1014.4 |
| 20260505210524 | 12 | 179 | 0.0 | 6.4 | 0.00 | 3.86 | 3.86 | 86 | 1014.4 |
| 20260505205621 | 12 | 180 | 0.0 | 4.8 | 0.00 | 3.86 | 3.86 | 85 | 1014.4 |
| 20260505204541 | 12 | 0.0 | 0.0 | 0.00 | 3.86 | 3.86 | 85 | 1014.4 | |
| 20260505203531 | 12 | 0.0 | 0.0 | 0.00 | 3.86 | 3.86 | 84 | 1014.4 | |
| 20260505202530 | 12 | 0.0 | 0.0 | 0.00 | 3.86 | 3.86 | 84 | 1013.7 | |
| 20260505201541 | 12 | 0.0 | 0.0 | 0.00 | 3.86 | 3.86 | 84 | 1013.4 | |
| 20260505200546 | 12 | 185 | 0.0 | 4.8 | 0.00 | 3.86 | 3.86 | 83 | 1013.4 |
| 20260505195524 | 12 | 180 | 0.0 | 1.6 | 0.00 | 3.86 | 3.86 | 83 | 1013.4 |
| 20260505194522 | 13 | 180 | 0.0 | 4.8 | 0.00 | 3.86 | 3.86 | 83 | 1013.4 |
| 20260505193520 | 13 | 199 | 0.0 | 4.8 | 0.00 | 3.86 | 3.86 | 82 | 1013.4 |
| 20260505192532 | 13 | 228 | 1.6 | 8.0 | 0.00 | 3.86 | 3.86 | 82 | 1013.4 |
| 20260505191541 | 13 | 176 | 1.6 | 6.4 | 0.00 | 3.86 | 3.86 | 81 | 1013.4 |
| 20260505190523 | 13 | 0.0 | 1.6 | 0.00 | 3.86 | 3.86 | 81 | 1013.4 | |
| 20260505185526 | 13 | 146 | 0.0 | 1.6 | 0.00 | 3.86 | 3.86 | 80 | 1013.4 |
| 20260505184524 | 13 | 0.0 | 0.0 | 0.00 | 3.86 | 3.86 | 80 | 1013.4 | |
| 20260505183523 | 13 | 0.0 | 0.0 | 0.00 | 3.86 | 3.86 | 79 | 1013.4 | |
| 20260505182522 | 13 | 0.0 | 0.0 | 0.10 | 3.86 | 3.86 | 80 | 1013.4 | |
| 20260505181523 | 13 | 0.0 | 0.0 | 0.10 | 3.86 | 3.86 | 80 | 1013.4 | |
| 20260505180533 | 13 | 338 | 0.0 | 3.2 | 1.07 | 3.86 | 3.86 | 80 | 1013.4 |
| 20260505175528 | 13 | 286 | 0.0 | 6.4 | 3.63 | 3.86 | 3.86 | 80 | 1014.2 |
| 20260505174546 | 13 | 316 | 6.4 | 12.9 | 3.63 | 3.86 | 3.86 | 80 | 1014.4 |
| 20260505173527 | 13 | 0.0 | 0.0 | 3.63 | 3.86 | 3.86 | 80 | 1013.4 | |
| 20260505172522 | 13 | 329 | 3.2 | 12.9 | 3.63 | 3.73 | 3.73 | 79 | 1013.4 |
| 20260505171541 | 13 | 271 | 1.6 | 6.4 | 3.73 | 3.73 | 3.73 | 79 | 1013.4 |
| 20260505170532 | 13 | 284 | 3.2 | 12.9 | 2.79 | 2.79 | 2.79 | 78 | 1013.4 |
| 20260505165530 | 13 | 245 | 8.0 | 14.5 | 0.20 | 0.20 | 0.20 | 79 | 1013.4 |
| 20260505164529 | 13 | 256 | 11.3 | 19.3 | 0.20 | 0.20 | 0.20 | 78 | 1013.4 |
| 20260505163528 | 13 | 240 | 16.1 | 25.7 | 0.20 | 0.20 | 0.20 | 78 | 1013.4 |
| 20260505162529 | 14 | 237 | 19.3 | 29.0 | 0.10 | 0.10 | 0.10 | 74 | 1012.7 |